Regional Weather Roundup
Issued by NWS

Home | Current Version | Previous Version | Graphics & Text | Print | Product List | Glossary On
Versions: 1 2 3 4 5 6 7 8 9 10 11 12 13 14 15 16 17 18 19 20 21 22 23 24 25 26 27 28 29 30 31 32 33 34 35 36 37 38 39 40 41 42 43 44 45 46 47 48 49 50
000
ASUS43 KLMK 302302
RWRKY
KENTUCKY REGIONAL WEATHER ROUNDUP
NATIONAL WEATHER SERVICE LOUISVILLE KY
700 PM EDT FRI SEP 30 2016

NOTE "FAIR" INDICATES FEW OR NO CLOUDS BELOW 12,000 FEET
WITH NO SIGNIFICANT WEATHER AND/OR OBSTRUCTIONS TO VISIBILITY.

KYZ001>023-026-027-061>063-070>075-010000-
WESTERN AND SOUTH CENTRAL KENTUCKY

CITY           SKY/WX    TMP DP  RH WIND       PRES   REMARKS
PADUCAH        CLOUDY    65  61  87 W5        30.01S
HENDERSON      CLOUDY    66  55  68 NW8       29.98S
OWENSBORO      MOCLDY   N/A N/A N/A SE9       29.99S
HOPKINSVILLE   MOCLDY    65  59  82 W5        30.01S
BOWLING GREEN  MOCLDY    63  58  83 S7        30.02S
GLASGOW        NOT AVBL
$$

KYZ024-025-028>034-038-045-046-053-010000-
NORTH CENTRAL KENTUCKY

CITY           SKY/WX    TMP DP  RH WIND       PRES   REMARKS
LOUISVILLE/SDF CLOUDY    58  54  86 SE5       30.02S
LOUISVILLE/LOU CLOUDY    59  53  80 VRB5      30.02S
FORT KNOX      CLOUDY    57  55  94 SE5       30.00S
$$

KYZ035>037-039>044-047>052-055>060-089>105-010000-
NORTHEAST KENTUCKY

CITY           SKY/WX    TMP DP  RH WIND       PRES   REMARKS
LEXINGTON      LGT RAIN  59  51  75 SW13      30.04R
COVINGTON      MOCLDY    62  52  69 SW7       30.01R
FRANKFORT      CLOUDY    62  50  64 SE6       30.01S
$$

KYZ054-064>069-076>088-106>120-010000-
SOUTHEAST KENTUCKY

CITY           SKY/WX    TMP DP  RH WIND       PRES   REMARKS
JACKSON        CLEAR     61  48  62 CALM      30.04R
LONDON         MOCLDY    63  49  60 SW3       30.04R
SOMERSET       MOCLDY    59  52  77 NW5       30.06R
MIDDLESBORO    CLEAR     62  53  74 CALM      30.05R
MONTICELLO     PTCLDY    60  53  77 W16       30.07R
$$





USA.gov is the U.S. government's official web portal to all federal, state and local government web resources and services.